This is the latest recevied weather packets stored in our database for station/object SP6KBU-12. If no packets are shown the sender has not sent any weather packets the latest 10 day(s).
| Time | Temp. | Humidity | Pressure | Rain* | Wind** | Luminosity | Snow |
|---|---|---|---|---|---|---|---|
| 1777966106 | 18.89° C | 50% | 1011.2 hPa | - | - | - | - |
| 1777965205 | 17.78° C | 49% | 1011.1 hPa | - | - | - | - |
| 1777964304 | 17.22° C | 51% | 1011.2 hPa | - | - | - | - |
| 1777963403 | 16.67° C | 51% | 1011.3 hPa | - | - | - | - |
| 1777962502 | 15.56° C | 51% | 1011.2 hPa | - | - | - | - |
| 1777961601 | 15.56° C | 52% | 1011.2 hPa | - | - | - | - |
| 1777960700 | 15° C | 52% | 1011.3 hPa | - | - | - | - |
| 1777959799 | 15° C | 53% | 1011.2 hPa | - | - | - | - |
| 1777958898 | 15° C | 52% | 1011.5 hPa | - | - | - | - |
| 1777957997 | 14.44° C | 53% | 1011.5 hPa | - | - | - | - |
| 1777957096 | 14.44° C | 53% | 1011.3 hPa | - | - | - | - |
| 1777956195 | 14.44° C | 53% | 1011.3 hPa | - | - | - | - |
| 1777955294 | 15° C | 48% | 1011.5 hPa | - | - | - | - |
| 1777954393 | 15° C | 48% | 1011.8 hPa | - | - | - | - |
| 1777953492 | 15° C | 49% | 1011.6 hPa | - | - | - | - |
| 1777952591 | 14.44° C | 48% | 1011.7 hPa | - | - | - | - |
| 1777951690 | 14.44° C | 48% | 1011.8 hPa | - | - | - | - |
| 1777950789 | 15° C | 48% | 1011.8 hPa | - | - | - | - |
| 1777949888 | 15° C | 49% | 1011.9 hPa | - | - | - | - |
| 1777948987 | 15° C | 50% | 1012 hPa | - | - | - | - |
| 1777948086 | 15° C | 51% | 1012.2 hPa | - | - | - | - |
| 1777947185 | 15° C | 54% | 1012.4 hPa | - | - | - | - |
| 1777946284 | 14.44° C | 51% | 1012.4 hPa | - | - | - | - |
| 1777945383 | 14.44° C | 48% | 1012.7 hPa | - | - | - | - |
| 1777944482 | 15° C | 48% | 1012.7 hPa | - | - | - | - |
* Rain since midnight (hover to see other rain measurements)
** Current wind speed in m/s (hover to see current wind gust speed)